Location: Lombard
(41.8800°N, 88.0080°W)
Time: 00:22:20
(UTC-05:00)

A-11 Canister half - Pass Details

Date: 30 January 2023
Orbit: 1512 x 1687 km, 47.2° (Epoch: 20 March)

Event Time Altitude Azimuth Distance (km) Brightness Sun altitude
Rises 11:44:18 0° 230° (SW) 4,835 12.0 30.3°
Reaches altitude 10° 11:47:28 10° 229° (SW) 3,827 11.7 30.4°
Maximum altitude 11:57:06 72° 147° (SSE) 1,637 10.0 30.5°
Drops below altitude 10° 12:06:25 10° 66° (ENE) 3,709 10.9 30.5°
Sets 12:09:26 0° 64° (ENE) 4,679 11.3 30.5°
